Temp
11 12 10 9 10 10 10 9 9 6 6 5 4 4 3 2 0 1 -0 -1 -2 -2 -2 -1 -1 -2 -2 -2 -3 -3 -3 -4 -3 -3 -3 -3 -3 -4 -5 -5 -5 -5 -5 -4
9 10 11 8 6 7 8 10 8 7 6 4 3 3 2 2 1 0 0 -1 -1 -2 -2 -1 -1 -2 -2 -2 -3 -3 -4 -4 -4 -4 -4 -4 -4 -4 -5 -6 -6 -6 -5 -5
11 9 10 10 7 6 8 9 9 7 7 3 3 3 1 1 1 0 -0 -1 -2 -2 -2 -1 -1 -1 -2 -2 -3 -3 -4 -4 -5 -5 -5 -5 -5 -5 -5 -7 -7 -8 -7 -6
10 10 10 8 8 8 9 8 7 5 4 3 3 1 1 1 0 0 -0 -1 -1 -1 -1 -1 -1 -1 -1 -2 -3 -3 -4 -4 -5 -5 -6 -6 -6 -7 -6 -7 -8 -8 -8 -8
10 10 9 8 9 9 9 8 6 4 4 2 1 1 -0 0 -0 -1 -1 -1 -1 -1 -1 -1 -1 -1 -2 -2 -3 -3 -4 -5 -5 -6 -6 -7 -7 -7 -8 -8 -8 -9 -9 -9
9 10 9 10 10 10 10 8 6 5 2 1 1 2 1 -0 -0 -1 -1 -0 -1 -1 -1 -1 -1 -1 -2 -2 -2 -3 -3 -4 -5 -5 -6 -7 -7 -8 -8 -9 -9 -9 -9 -9
8 9 9 11 10 10 8 8 6 4 3 2 2 1 -0 -0 -1 -1 -0 -1 -1 -1 -2 -2 -2 -2 -2 -3 -3 -3 -3 -4 -5 -5 -6 -7 -7 -8 -9 -9 -9 -9 -9 -9
8 9 9 9 10 9 7 6 6 4 3 2 -1 -1 -1 -1 -1 -1 -0 -1 -1 -2 -3 -3 -3 -3 -3 -3 -3 -3 -4 -4 -5 -6 -6 -6 -7 -8 -8 -9 -9 -9 -10 -9
8 7 6 7 8 7 6 5 4 4 4 1 -0 -0 -0 -1 -1 1 -0 -1 -2 -3 -4 -4 -4 -4 -4 -4 -4 -5 -5 -5 -5 -6 -6 -6 -7 -7 -8 -9 -9 -9 -10 -10
6 5 6 7 8 6 5 3 2 3 2 1 1 0 0 0 0 0 -1 -2 -3 -3 -5 -5 -5 -5 -6 -5 -5 -5 -6 -6 -6 -6 -6 -6 -7 -7 -7 -8 -9 -10 -10 -10
4 5 6 6 6 4 3 3 2 2 2 2 1 1 1 1 1 -0 -1 -2 -3 -4 -5 -6 -6 -6 -6 -6 -6 -6 -6 -7 -7 -7 -7 -7 -7 -7 -8 -8 -9 -9 -9 -10
5 5 5 4 4 4 3 3 3 2 2 2 2 2 2 1 0 -1 -2 -2 -4 -5 -6 -7 -7 -7 -7 -7 -7 -6 -7 -7 -7 -7 -7 -7 -8 -7 -8 -8 -8 -9 -9 -9
7 5 5 3 4 5 3 3 3 3 3 3 3 2 1 -0 -1 -1 -2 -3 -4 -5 -6 -7 -7 -7 -7 -7 -7 -7 -8 -8 -8 -7 -8 -8 -8 -8 -8 -8 -9 -9 -10 -10
5 4 4 4 3 5 4 4 4 4 3 2 1 1 -0 -1 -2 -2 -3 -4 -4 -5 -6 -7 -7 -7 -8 -8 -7 -8 -8 -8 -8 -8 -8 -8 -9 -9 -9 -9 -10 -10 -10 -11
6 5 4 4 4 4 3 3 1 0 -1 -1 0 -1 -1 -2 -3 -3 -4 -4 -5 -6 -7 -7 -7 -8 -8 -8 -8 -8 -8 -8 -8 -8 -9 -9 -9 -10 -10 -10 -10 -11 -11 -11
5 4 4 3 3 2 1 0 -0 -1 -1 -2 -2 -1 -2 -2 -3 -4 -4 -5 -5 -7 -7 -7 -8 -8 -8 -9 -8 -8 -8 -9 -9 -9 -9 -9 -10 -10 -10 -11 -11 -11 -11 -12
4 3 2 2 2 2 1 0 0 -1 -1 -2 -2 -2 -2 -4 -4 -5 -5 -5 -5 -6 -7 -7 -8 -8 -9 -9 -9 -9 -9 -9 -9 -9 -10 -10 -10 -10 -11 -11 -11 -11 -12 -12
6 5 4 3 1 0 -0 0 0 -0 -1 -1 -1 -2 -4 -4 -5 -6 -6 -7 -7 -8 -8 -8 -8 -9 -9 -9 -10 -10 -9 -10 -9 -10 -10 -10 -10 -11 -11 -11 -11 -12 -12 -12
5 4 3 3 2 1 0 -0 0 1 0 -0 -2 -3 -3 -3 -4 -5 -7 -7 -8 -8 -7 -8 -9 -9 -9 -10 -10 -10 -10 -10 -10 -10 -10 -10 -11 -11 -11 -11 -11 -12 -12 -12
4 4 4 3 3 2 1 1 1 0 0 -1 -2 -3 -4 -4 -5 -6 -7 -7 -6 -7 -7 -8 -8 -9 -10 -10 -10 -10 -10 -10 -10 -10 -10 -11 -11 -11 -11 -11 -12 -12 -12 -12
2 2 2 2 1 2 3 2 1 -1 -1 -1 -2 -4 -4 -5 -5 -6 -8 -8 -7 -7 -8 -8 -8 -9 -10 -9 -10 -10 -10 -10 -11 -11 -11 -11 -11 -11 -11 -12 -12 -12 -13 -13
-0 -2 -1 -0 0 -1 0 1 1 -1 -2 -3 -3 -4 -6 -7 -7 -7 -7 -7 -6 -7 -8 -8 -8 -9 -9 -10 -10 -10 -10 -11 -11 -11 -11 -11 -11 -11 -12 -12 -13 -13 -14 -14
-1 -1 -2 -2 -2 -2 -3 -2 -1 -1 -3 -4 -4 -5 -6 -6 -6 -8 -9 -7 -7 -7 -8 -8 -9 -9 -9 -10 -10 -10 -10 -10 -11 -11 -12 -12 -13 -13 -14 -14 -14 -15 -15 -16
-3 -2 -3 -3 -3 -4 -6 -5 -4 -4 -3 -4 -4 -5 -5 -7 -7 -7 -7 -6 -6 -7 -8 -9 -9 -9 -9 -10 -10 -10 -11 -12 -12 -13 -13 -13 -14 -15 -16 -16 -17 -17 -18 -18
-3 -4 -4 -4 -5 -5 -5 -6 -6 -6 -6 -7 -7 -7 -7 -7 -6 -6 -7 -7 -7 -8 -8 -9 -9 -9 -10 -10 -11 -12 -13 -13 -14 -14 -15 -16 -17 -17 -18 -19 -20 -20 -20 -20
-3 -4 -4 -3 -3 -4 -5 -6 -7 -8 -8 -8 -7 -7 -7 -7 -7 -7 -7 -7 -8 -9 -9 -10 -10 -11 -11 -12 -13 -13 -14 -15 -16 -17 -18 -18 -19 -20 -20 -21 -21 -22 -22 -23
-3 -3 -4 -4 -4 -4 -5 -6 -7 -7 -7 -7 -7 -7 -7 -7 -7 -7 -8 -8 -9 -10 -10 -11 -12 -13 -13 -14 -15 -16 -16 -17 -18 -19 -20 -20 -21 -22 -22 -23 -23 -24 -24 -25
Height
787 783 787 795 791 793 793 800 805 817 813 816 822 828 836 841 846 846 846 846 847 844 840 835 831 827 821 816 811 805 798 793 790 784 774 768 763 755 749 745 745 748 744 740
791 791 784 799 809 806 799 793 802 808 814 815 824 829 836 841 844 846 847 849 848 844 842 838 834 832 826 821 817 812 806 801 798 791 784 774 769 766 763 759 758 760 760 749
782 792 786 791 797 803 794 787 794 806 800 817 823 827 836 841 843 846 848 850 848 845 843 841 838 835 830 827 824 818 812 809 803 796 794 790 783 778 774 772 771 767 763 763
788 789 784 789 783 784 781 789 796 801 809 812 819 832 835 837 841 845 848 850 848 846 844 843 840 838 835 831 828 824 819 815 811 805 801 796 793 790 791 787 779 774 770 771
782 779 782 786 780 783 784 788 792 800 810 819 827 833 838 837 840 844 847 847 848 847 845 844 842 840 837 834 831 828 826 823 819 814 810 805 801 799 797 793 792 790 789 787
783 776 782 776 771 773 777 789 787 794 810 819 826 826 826 834 838 842 845 846 847 847 846 846 845 842 839 837 835 832 831 829 826 823 819 816 815 811 809 805 801 797 795 791
784 779 776 769 771 774 792 787 787 795 804 815 819 821 822 831 837 841 844 846 847 848 848 849 848 844 843 842 840 838 836 834 831 830 827 826 824 822 820 819 814 809 805 804
784 779 782 772 772 781 781 782 786 795 801 810 820 823 827 832 836 840 843 847 847 848 849 850 850 848 846 845 845 843 840 838 836 835 834 831 828 826 822 819 816 813 812 811
776 777 780 776 774 776 778 784 790 793 799 808 817 823 828 833 837 838 842 846 849 849 850 851 851 851 849 848 847 845 845 842 840 838 836 834 831 828 824 823 821 821 820 818
781 784 780 778 776 779 780 785 790 792 799 806 813 821 827 832 836 839 842 845 849 851 852 852 852 852 851 850 848 844 843 843 843 841 839 837 836 833 829 826 825 826 826 825
787 783 781 779 778 782 787 789 793 799 802 806 812 820 823 828 834 838 842 846 848 850 853 854 853 851 852 851 848 845 845 846 845 843 842 840 839 837 834 832 831 831 830 828
780 772 776 779 781 783 788 792 795 800 805 809 812 817 822 827 832 836 840 844 848 850 853 855 854 852 853 853 850 848 847 847 847 846 845 844 842 840 838 838 837 835 835 833
763 768 772 776 780 784 789 793 797 802 805 809 814 818 822 827 831 835 839 843 847 850 851 853 853 853 854 855 853 851 850 850 850 848 847 845 841 840 839 839 838 837 835 834
764 770 779 779 785 785 790 794 799 804 808 812 816 821 825 829 833 836 839 842 846 849 851 851 852 853 854 855 854 853 853 852 851 850 849 848 846 844 843 841 839 837 835 834
768 768 772 777 784 787 792 797 802 807 811 815 820 823 826 830 834 837 840 843 846 848 849 850 852 853 853 854 855 853 853 853 853 853 852 850 848 846 844 842 840 839 837 835
770 772 776 781 786 790 794 799 804 810 812 816 819 823 826 830 834 838 841 843 845 847 849 849 850 851 852 854 854 853 853 854 854 853 852 850 847 846 843 842 841 840 838 837
773 779 782 785 789 792 795 798 802 808 813 816 820 823 827 831 835 838 841 843 845 847 848 849 849 850 851 852 852 852 853 853 853 852 850 849 846 844 842 842 841 840 838 836
766 770 775 780 786 791 796 798 802 807 811 814 819 823 827 829 833 837 840 843 844 846 847 848 849 849 851 851 852 852 852 852 851 850 849 847 845 843 843 842 840 838 836 834
767 771 775 780 784 788 793 798 802 805 810 813 817 821 825 829 832 836 840 842 844 845 846 847 848 849 850 850 852 852 851 851 850 848 846 845 844 843 842 840 838 836 834 831
768 771 775 780 784 788 793 796 800 805 809 813 817 821 825 829 832 835 838 839 841 842 844 845 846 848 848 849 850 850 850 848 847 845 844 843 842 841 839 837 835 832 829 826
770 773 776 780 784 788 792 794 799 804 808 811 814 818 822 827 830 833 836 837 838 841 842 843 844 846 846 847 847 848 847 845 843 842 842 841 840 838 836 833 831 828 825 822
772 775 778 782 785 789 793 795 796 802 807 811 815 818 822 825 828 831 833 835 836 837 840 841 843 844 844 844 845 845 844 842 841 840 839 838 836 833 831 829 827 824 821 818
775 777 780 783 786 790 795 798 799 801 805 810 814 817 820 822 825 829 831 832 834 836 838 840 841 842 842 842 843 842 841 840 839 838 836 834 832 830 828 826 824 821 818 815
779 781 784 786 790 793 797 799 802 803 807 810 813 816 819 822 825 827 829 831 832 835 837 839 839 840 840 840 840 839 838 837 836 835 834 832 830 828 826 824 821 819 816 813
783 785 788 789 793 796 798 801 804 805 808 811 814 817 821 823 825 827 829 831 833 834 836 837 838 838 838 837 836 836 836 835 834 833 832 830 828 826 823 821 818 816 813 810
788 789 791 792 794 796 798 801 804 806 808 811 814 817 821 824 826 828 830 831 833 834 835 836 836 836 836 836 835 835 835 833 832 831 829 827 825 823 820 818 815 811 808 805
790 791 793 795 796 798 799 800 803 805 807 809 812 816 820 824 827 829 830 832 833 834 835 835 836 836 836 835 835 834 833 832 830 829 827 824 822 819 817 814 810 807 804 801
Wind_Speed
6 5 3 2 2 1 4 3 4 4 6 12 12 10 8 7 4 3 4 5 5 6 11 16 20 21 24 26 27 29 29 31 31 30 31 34 37 40 42 42 43 41 43 47
5 6 6 4 5 7 3 3 2 4 4 5 8 10 8 6 5 3 4 3 3 6 10 13 17 18 20 25 25 25 26 28 26 29 32 35 37 37 39 42 41 40 41 47
3 5 3 4 10 8 5 5 6 7 5 12 10 11 9 7 5 4 4 0 2 4 9 13 14 17 20 19 20 25 27 27 28 30 30 31 32 34 37 38 35 39 40 40
1 3 5 4 2 6 7 4 4 4 9 12 11 6 8 7 6 5 5 3 2 4 9 14 13 16 19 21 21 21 26 28 30 30 29 31 33 32 30 31 38 38 41 40
4 5 3 2 4 5 6 7 7 9 10 11 11 7 3 7 6 4 3 10 4 5 9 15 14 13 19 23 21 22 22 26 29 31 31 31 32 32 30 31 32 35 34 35
1 3 4 2 3 6 4 4 11 12 14 15 11 5 4 11 9 6 3 12 11 12 12 15 17 14 20 22 24 24 20 21 29 32 33 32 29 29 29 31 31 33 37 40
3 2 3 1 6 7 3 5 12 15 16 16 6 1 7 12 8 8 11 16 15 15 15 12 14 18 16 20 22 22 20 22 19 25 31 29 28 26 27 26 30 33 34 36
3 2 6 3 3 6 3 3 11 11 14 14 8 10 11 10 7 9 11 15 16 16 15 13 12 16 18 17 16 19 21 21 21 19 21 28 28 27 27 26 28 28 29 29
4 3 1 2 2 2 3 5 5 10 12 14 13 9 10 9 8 12 19 16 18 17 15 13 13 13 15 14 13 17 19 20 21 22 22 25 27 28 27 27 24 24 26 27
2 2 2 2 2 4 4 7 7 9 15 15 12 14 11 8 8 15 18 18 19 17 14 12 12 13 13 12 12 17 20 19 20 20 20 20 22 23 23 25 23 21 23 27
2 1 2 4 3 9 9 11 12 11 13 14 15 13 12 9 16 18 18 17 18 16 13 10 10 13 12 12 13 15 17 16 19 18 19 18 18 17 17 14 16 19 24 26
4 8 4 4 7 12 13 10 12 12 11 15 18 13 16 15 18 19 18 19 18 16 13 9 10 11 11 11 13 15 14 15 14 15 15 15 16 18 19 18 16 13 17 20
3 9 3 8 9 9 9 9 10 11 14 13 15 17 19 17 17 19 20 18 16 13 11 9 8 10 9 8 9 13 14 11 13 14 15 17 20 20 20 17 16 14 16 18
11 11 6 5 5 10 12 14 17 15 15 15 16 18 18 18 18 18 17 17 15 13 10 8 7 8 6 6 8 9 11 11 12 12 12 13 15 14 14 16 17 17 18 18
6 4 6 9 13 9 14 12 8 7 11 14 20 20 20 17 16 17 18 15 13 10 8 6 6 5 5 5 6 8 8 10 9 8 8 11 12 11 13 15 14 14 16 18
6 8 10 10 9 8 8 8 9 7 11 13 18 19 19 22 21 18 15 14 12 10 7 6 4 3 3 3 3 5 6 6 6 6 7 10 12 10 13 15 13 14 15 15
9 6 7 7 10 9 8 8 11 11 13 16 18 21 22 22 20 17 13 12 10 8 6 5 3 4 3 3 4 4 4 4 5 5 8 8 11 11 13 13 12 13 13 14
11 9 11 12 11 8 7 13 18 20 16 21 22 22 23 22 17 16 13 12 11 9 7 4 2 3 4 4 3 2 2 2 5 6 7 9 11 11 12 11 12 13 14 15
13 10 14 16 18 16 15 16 20 23 21 23 24 25 25 21 18 17 14 12 11 9 7 7 3 3 4 6 5 1 2 4 5 7 7 10 11 11 12 13 15 15 17 17
7 15 18 17 21 21 16 19 22 22 22 24 23 21 19 19 18 17 15 12 9 6 6 7 5 4 6 4 2 4 7 8 6 7 9 11 12 13 13 14 15 17 18 20
8 13 15 18 16 17 22 22 24 23 24 25 26 25 23 20 18 16 15 13 10 11 7 5 4 5 5 4 4 6 11 8 7 9 12 14 15 15 14 15 17 17 17 20
12 13 16 18 18 16 18 24 25 23 23 23 22 21 21 20 18 16 11 10 8 10 9 5 4 4 6 6 8 10 11 10 10 12 14 17 19 18 13 14 15 16 18 19
15 18 18 19 19 18 16 16 19 22 22 22 21 22 22 21 19 16 12 13 11 10 7 5 4 4 4 6 8 10 11 11 13 16 18 13 9 9 10 11 12 15 15 14
15 16 15 16 19 18 14 14 15 15 15 16 17 17 18 16 12 12 3 6 7 13 8 6 5 5 6 7 10 12 14 15 11 3 6 10 10 12 13 12 13 16 17 18
12 14 17 18 15 12 13 13 11 11 12 12 13 14 14 8 9 10 10 8 7 7 5 3 4 6 8 8 7 4 4 4 6 8 10 11 12 12 10 13 15 17 18 18
8 9 12 12 11 12 13 14 13 13 14 14 13 14 15 9 10 10 9 7 6 4 4 4 4 4 4 4 3 5 6 7 8 10 12 13 13 13 15 17 18 19 18 15
6 7 7 7 7 10 12 13 13 14 14 15 14 15 18 15 11 10 9 9 9 11 10 7 5 4 4 5 6 7 8 9 11 12 14 14 15 16 18 20 20 17 16 15
Wind_Direction
278 236 142 87 321 221 181 198 169 264 214 201 179 159 147 147 125 118 63 26 348 355 348 18 18 13 20 21 22 23 26 28 22 28 30 38 40 41 44 48 53 52 53 55
190 276 184 184 217 206 218 216 212 183 237 122 115 118 139 147 146 116 96 29 338 6 9 28 28 19 26 24 24 28 32 31 27 35 36 35 38 39 43 45 49 51 51 51
246 206 143 276 226 189 188 199 157 202 197 152 151 155 157 148 145 145 139 185 336 7 29 39 41 39 36 32 34 35 38 35 33 37 39 41 44 43 43 42 43 48 49 50
168 120 217 245 234 214 188 172 162 95 155 163 148 121 135 143 139 156 159 185 286 46 48 44 54 52 58 50 44 46 43 41 39 40 40 42 44 45 46 46 44 40 42 44
179 205 293 184 211 163 172 238 188 144 140 126 123 111 146 157 155 168 214 170 152 59 66 55 57 57 61 60 51 54 52 49 46 45 47 46 44 43 44 49 50 48 47 45
133 226 232 245 182 147 74 284 163 145 151 148 149 170 180 171 173 188 200 149 121 90 81 61 56 75 62 63 60 54 59 56 56 55 56 57 54 51 54 54 55 54 50 51
160 257 286 299 147 114 107 246 160 156 157 159 177 156 138 150 166 164 139 134 116 95 83 71 65 73 66 66 63 66 71 65 63 54 57 59 62 61 60 60 57 54 52 49
131 161 267 138 90 166 198 81 149 155 160 160 119 120 135 153 168 163 152 135 122 104 88 74 73 71 61 62 71 73 73 72 68 70 61 57 58 59 59 56 52 48 46 43
191 216 227 290 168 138 131 119 147 150 158 141 138 144 150 161 166 150 142 136 128 117 102 83 73 68 64 64 81 79 73 68 66 63 60 51 50 50 53 54 53 48 44 38
106 272 170 359 72 107 110 117 112 130 144 147 144 148 155 157 152 137 138 137 134 123 107 92 83 74 65 75 80 78 67 59 57 58 55 51 48 45 47 48 58 56 47 39
24 299 88 293 112 126 111 114 112 121 138 141 141 159 160 155 142 136 134 136 138 128 117 102 92 76 68 65 76 76 69 62 56 56 54 55 54 45 51 56 54 56 45 35
217 190 158 185 144 135 131 137 138 139 140 148 155 157 150 144 140 137 132 135 131 131 126 114 98 89 74 70 69 69 69 59 52 51 51 52 56 56 54 52 50 57 38 33
180 143 144 129 126 140 123 138 141 141 148 151 155 142 140 136 139 136 138 138 139 141 131 122 102 88 85 69 67 66 61 60 51 50 49 46 39 37 36 37 39 40 30 29
118 107 81 133 144 127 115 121 131 131 139 130 127 131 133 132 133 134 138 144 146 143 134 125 105 90 90 80 70 81 54 55 49 48 45 40 33 38 42 36 32 30 22 19
124 88 141 127 139 131 129 126 117 121 117 120 148 141 138 135 134 139 150 152 149 144 136 128 110 96 105 113 95 90 64 47 44 41 46 33 31 45 38 31 34 26 13 11
114 111 123 137 139 138 135 134 131 133 136 137 141 148 149 151 150 150 155 164 159 159 155 146 125 113 96 135 129 97 80 48 33 37 39 31 31 37 27 21 21 15 11 7
119 122 123 131 150 154 159 149 146 148 145 150 158 159 156 150 151 155 158 174 183 166 155 140 135 131 130 123 153 109 81 54 22 32 22 20 20 22 15 8 5 359 356 357
163 163 166 160 157 150 148 154 158 161 165 170 168 166 160 161 164 168 166 165 164 166 171 156 136 148 142 115 133 143 51 44 2 4 2 2 6 360 352 347 342 339 340 341
151 154 157 156 162 162 160 165 173 180 179 174 170 173 178 180 176 172 170 173 181 191 202 195 189 190 154 133 78 55 316 316 332 340 343 344 346 342 333 329 330 328 328 328
129 155 160 160 169 165 163 178 181 182 182 179 175 169 171 177 179 179 185 196 206 196 189 186 196 204 182 192 211 344 325 301 311 332 332 329 325 323 325 323 324 324 326 326
134 146 151 155 158 173 178 175 174 176 178 179 175 178 179 177 182 185 190 206 213 207 191 202 205 196 222 221 227 306 325 312 309 319 321 315 310 311 313 320 327 329 329 329
132 133 146 151 153 157 176 179 180 177 179 184 187 181 175 178 187 197 211 213 207 187 188 196 196 224 254 247 263 300 323 319 307 311 311 310 304 300 312 326 329 331 329 327
144 147 149 152 155 154 159 173 177 177 178 185 186 187 191 195 196 190 211 210 194 189 193 203 229 245 286 266 278 300 311 315 318 319 318 324 345 344 342 341 337 334 341 349
139 146 144 146 147 147 144 164 174 180 190 196 202 202 192 186 193 192 159 174 200 201 209 226 252 277 283 296 308 310 313 318 324 52 345 336 339 339 338 336 339 336 336 334
139 142 149 152 159 164 162 164 168 173 180 187 190 188 184 176 200 193 188 164 154 172 191 221 274 284 278 292 308 337 78 38 343 336 337 342 341 340 340 337 335 334 333 336
143 159 170 177 186 179 175 175 180 184 182 180 187 188 183 162 148 138 153 149 141 153 185 185 171 134 101 76 35 348 342 339 341 345 343 341 338 337 335 332 331 330 328 323
144 154 165 178 178 187 185 189 187 190 193 189 185 187 183 166 168 158 155 156 156 140 135 125 105 70 38 3 353 344 337 340 343 344 344 342 340 339 337 335 334 330 324 322